COSMOS 1697

Satellite information

Favourite Embed

Satellite Type and Status

PAYLOADIN ORBIT

Key statistics

Satellite COSMOS 1697 at a glance.

Uptime

14613

Days in orbit

Revolutions

≈ 14.1

Per day

Orbit

LEO

Low Earth Orbit

Inclination

71.0

Latest

Satellite identification and parameters

Extended collection of information and parameters for COSMOS 1697.

Object identification

Identified? True

Debris? False

Object name: COSMOS 1697

International designator: 1985-097A

Object number (NORAD): 16181

Object ID (CCSDS): 16181

Country: COMMONWEALTH OF INDEPENDENT STATES (CIS)

Current information (Y/N): Y

RCS size: LARGE

Orbital parameters

Period: 101.865 minutes

Inclination: 70.9605 deg

SMA: 7225.094 km

Apoapsis: 859.14 km

Periapsis: 834.778 km

RAAN: 147.9303 deg

Eccentricy: 0.00168595

Argument of periapsis: 6.4761 deg

Mean anomaly: 353.6575 deg

Mean motion: 14.13635701 rev/day

Mean motion (dot): 0.00000342 rev/day2

B* drag term: 0.00020601303 1/REarth

Two-line elements (TLE)

Creation date: Oct. 24, 2025, 2:48 a.m.

Reference frame: TEME

Reference center: EARTH

Epoch: Oct. 23, 2025, 9:59 p.m. UTC

TLE line 0: 0 COSMOS 1697

TLE line 1: 1 16181U 85097A 25296.91652714 .00000342 00000-0 20601-3 0 9996

TLE line 2: 2 16181 70.9605 147.9303 0016859 6.4761 353.6575 14.13635701930283

Live tracking on map

Real-time ground track for satellite COSMOS 1697.

In-orbit conjunctions

A list of the most updated potential collisions computed for object COSMOS 1697.

Target Orbit TCA Probability of collision Miss distance Type
FENGYUN 1C DEB SSO 2025-09-29 04:54:57 0.0001050675 770.0 (m) DEBRIS
CZ-6A DEB SSO 2025-07-11 17:52:31 0.0002249894 248.0 (m) DEBRIS
FENGYUN 1C DEB SSO 2025-04-27 09:19:45 0.0005795581 318.0 (m) DEBRIS
SL-16 DEB LEO 2025-03-25 21:48:24 0.0003908197 338.0 (m) DEBRIS
NOAA 16 DEB SSO 2025-01-30 02:13:30 0.0001779575 67.0 (m) DEBRIS

Associated space launch

Dynamic simulator of the Tselina-2 ELINT satellite

COSMOS 1697 was lifted into orbit during the mission ‘Zenit-2 | GVM Tselina-2’, on board a Zenit-2 space rocket.

The launch took place on Oct. 22, 1985, 7 a.m. from 45/1.

For more information about the launch, click the button.

Launch to space Zenit-2 | GVM Tselina-2
Zenit-2 | GVM Tselina-2

Agency: N/A

Status: Launch Successful

Launch date: Oct. 22, 1985, 7 a.m. UTC

Rocket: Zenit-2

Launch pad: 45/1

Location: Baikonur Cosmodrome, Republic of Kazakhstan

...

Latest news about this satellite

There are no fresh news available about this satellite. Check back as we update our databases every day.


Newsletter sign-up

Weekly statistics, charts and insights to help you stay on top of the space industry.